Starlink 31127

operational
NORAD ID: 58765 Int'l Des: 2024-011 Owner: SPXS Country: US Constellation: starlink
LEOCIRCULAR

Starlink 31127について

説明を読み込み中...

リアルタイム位置

3D地球を読み込み中...

次回通過

高度履歴

Altitude vs Time

uPlot chart will show altitude changes over time

軌道要素

1 58765U 24011A 25351.41818660 -.00002521 00000-0 -73024-4 0 9991
2 58765 53.1609 35.8566 0001064 75.0978 285.0141 15.30199249107672
Epoch: Dec 17, 2025 • Age: 21 hours

現在のステータス

高度 476.5 km
速度 7.63 km/s
衛星直下点 30.78°N, 127.71°W
打ち上げ日 Jan 14, 2024
運用期間 1.9 years
タイプ internet

技術仕様

分類 Payload
質量 730.00 kg
乾燥質量 700.00 kg
総質量 730.00 kg
長さ 0.30 m
直径 4.10 m
スパン 29.00 m
形状 Box + pan
製造者 SPXS
バスタイプ Starlink V2M
フェーズステータス In Orbit
所有者/国 SPXS/US

大規模コンステレーション

Loading constellations...